GSAT0205 (GALILEO 9)

Last updated on Nov. 17, 2019, 4:19 a.m. UTC

1 40889U 15045A   19319.65406580 -.00000012  00000-0  00000+0 0  9994
2 40889  56.3266 288.0094 0003817 342.0434  17.9229  1.70474589 26002
UTC
Height (km)
Latitude
Longitude
Inclination
Orbital Period
UTC large
Height (km)
Speed (km/s)
/
Latitude / Longitude
Inclination (degrees)
Orbital Period (minutes)
Azimuth
Elevation
Range (km)
Doppler Factor
iOS Compass Heading
iOS Angle

Next 30 passes for location: Hong Kong

Rise time Rise Azimuth (degrees) Set time Set Azimuth (degrees) Duration Max altitude (degrees)

No matching passes for this satellites